Home   Weather   Wederath   Past weeks
Flag for Germany

Past Weather in Wederath, Rhineland-Palatinate, Germany — October 2020

Currently: 64 °F. Sunny. (Weather station: Hahn, Germany). See more current weather

October 2020 Weather in Wederath — Graph

°F

High & Low Weather Summary for October 2020

 TemperatureHumidityPressure
High66 °F (Oct 21, 1:20 pm)100% (Oct 1, 1:20 am)30.27 "Hg (Oct 1, 1:20 am)
Low34 °F (Oct 13, 7:50 am)46% (Oct 21, 1:20 pm)29.18 "Hg (Oct 2, 9:20 pm)
Average48 °F89%29.88 "Hg
* Reported Oct 1 12:20 am — Oct 31 11:50 pm, Wederath. Weather by CustomWeather, © 2022

Note: Actual official high and low records may vary slightly from our data, if they occured in-between our weather recording intervals... More about our weather records

Wederath Weather History for October 1, 2020

Scroll right to see more
 ConditionsComfort  
Time TempWeatherWind HumidityBarometerVisibility
12:20 am
Thu, Oct 1
50 °FClear.12 mph94%29.86 "Hg10 mi
12:50 am50 °FClear.12 mph94%29.86 "Hg10 mi
1:20 am48 °FFog.10 mph100%29.83 "Hg3 mi
2:20 am48 °FLight fog.10 mph100%29.80 "Hg2 mi
3:20 am48 °FFog.13 mph100%29.77 "Hg2 mi
3:50 am48 °FFog.10 mph100%29.77 "Hg1 mi
4:20 am48 °FFog.12 mph100%29.74 "Hg1 mi
4:50 am48 °FFog.12 mph100%29.74 "Hg0 mi
5:50 am48 °FFog.10 mph100%29.71 "Hg0 mi
6:20 am48 °FFog.13 mph100%29.71 "Hg0 mi
6:50 am48 °FFog.13 mph100%29.71 "Hg0 mi
7:20 am48 °FFog.13 mph100%29.68 "Hg0 mi
7:50 am48 °FFog.10 mph100%29.68 "Hg0 mi
8:20 am48 °FFog.10 mph100%29.68 "Hg0 mi
8:50 am48 °FFog.10 mph100%29.68 "Hg0 mi
9:20 am48 °FFog.12 mph100%29.68 "Hg0 mi
9:50 am50 °FFog.13 mph100%29.65 "Hg0 mi
10:20 am50 °FScattered clouds.15 mph100%29.65 "Hg2 mi
10:50 am52 °FScattered clouds.14 mph100%29.65 "Hg6 mi
11:20 am52 °FPartly sunny.15 mph100%29.65 "Hg4 mi
11:50 am54 °FScattered clouds.15 mph94%29.65 "Hg5 mi
12:20 pm54 °FScattered clouds.13 mph94%29.62 "HgN/A
12:50 pm54 °FScattered clouds.14 mph94%29.62 "HgN/A
1:20 pm55 °FScattered clouds.14 mph88%29.62 "HgN/A
1:50 pm55 °FScattered clouds.13 mph88%29.62 "HgN/A
2:20 pm55 °FLight rain. Scattered clouds.10 mph88%29.62 "HgN/A
3:20 pm55 °FLight rain. Passing clouds.14 mph94%29.59 "HgN/A
3:50 pm55 °FScattered clouds.15 mph88%29.59 "HgN/A
4:20 pm54 °FPassing clouds.14 mph94%29.59 "HgN/A
4:50 pm55 °FScattered clouds.17 mph88%29.59 "HgN/A
5:20 pm54 °FLight rain. Scattered clouds.16 mph94%29.59 "Hg5 mi
5:50 pm55 °FScattered clouds.14 mph88%29.59 "HgN/A
6:20 pm55 °FScattered clouds.9 mph88%29.59 "HgN/A
6:50 pm52 °FScattered clouds.8 mph94%29.59 "HgN/A
7:20 pm52 °FPassing clouds.8 mph94%29.59 "HgN/A
7:50 pm52 °FSprinkles. Passing clouds.9 mph94%29.59 "HgN/A
8:20 pm52 °FSprinkles. Passing clouds.10 mph94%29.59 "HgN/A
8:50 pm52 °FSprinkles. Passing clouds.9 mph94%29.62 "HgN/A
9:20 pm50 °FSprinkles. Passing clouds.2 mph88%29.62 "HgN/A
9:50 pm48 °FPassing clouds.5 mph94%29.59 "HgN/A
10:20 pm48 °FPassing clouds.7 mph94%29.59 "HgN/A
10:50 pm48 °FClear.8 mph94%29.59 "Hg10 mi
11:20 pm48 °FPassing clouds.9 mph94%29.59 "HgN/A
11:50 pm45 °FClear.10 mph100%29.59 "Hg10 mi
Weather by CustomWeather, © 2022

See weather overview